Weather in Napier

New Zealand     39°30′32″S   176°52′47″E
temp.,
°C
wind,
m/s
gust,
m/s
humid.,
%
clouds,
%
prec.,
mm/h
press.,
hPa
HPBL,
m
28 november, sun
sun2801:00+16s4682100 0.0 1024288
04:00+15sw2385100 0.0 1023188
07:00+14wsw338599 0.0 1024129
10:00+15e1280100 0.0 1024138
13:00+16e4482100 0.0 1022246
16:00+17ene3380100 0.0 1021373
19:00+17ese448497 0.0 1022495
22:00+17e238866 0.1 1023140
29 november, mon
mon2901:00+16nnw228997 0.1 1022106
04:00+16w2189100 0.0 102196
07:00+16wnw228799 0.0 1020119
10:00+16ne128249 0.0 1021131
13:00+17e4484100 0.0 1019171
16:00+18ene3387100 0.0 1018130
19:00+18ene238796 0.0 101878
22:00+18ssw118541 0.0 101911
30 november, tue
tue3001:00+17w228290 0.0 101822
04:00+17wnw228280 0.0 101672
07:00+17w2282100 0.0 101782
10:00+18ene1177100 0.0 101677
13:00+18ese3480100 0.4 1015115
16:00+16ese1296100 8.6 1015110
19:00+17n1295100 14.0 1016118
22:00+17s1296100 1.4 101852
1 december, wed
wed101:00+17ssw369592 6.1 1018252
04:00+17s61093100 0.8 1019671
07:00+16s71089100 1.1 1022690
10:00+16s6779100 0.3 1024833
13:00+16se777829 0.4 1024448
16:00+16se778149 0.0 1024496
19:00+16se668262 0.1 1025479
22:00+16ese5581100 0.3 1026514
2 december, thu
thu201:00+16e447765 0.4 1026633
04:00+16ene447796 0.1 1026667
07:00+16ene4575100 0.1 1027731
10:00+16ne5677100 0.1 1027722
13:00+16ene657398 0.1 1027631
16:00+16ene667296 0.0 1025618
19:00+16ene6670100 0.0 1026669
22:00+16ene6671100 0.0 1027677